Location: Albany
(35.0170°S, 117.8920°E)
Time: 03:39:22
(UTC+08:00)

Vanguard 1 - Pass Details

Date: 03 February 2021
Orbit: 649 x 3833 km, 34.2° (Epoch: 26 February)

Event Time Altitude Azimuth Distance (km) Brightness Sun altitude
Rises 00:22:04 0° 278° (W) 5,289 13.7 -38.4°
Enters shadow 00:25:37 - 279° (W) 4,025 13.1 -38.4°
Reaches altitude 10° 00:26:15 10° 279° (W) 3,793 - -38.4°
Maximum altitude 00:35:03 83° 5° (N) 1,016 - -38.3°
Drops below altitude 10° 00:40:15 10° 92° (E) 2,309 - -38.2°
Sets 00:42:15 0° 92° (E) 3,103 - -38.2°
